Total_Precipitation_Accumulation
0.00 0.00 0.01 0.08 0.38 0.50 0.77 1.68 1.41 1.03 0.41 0.18 0.21 0.30 0.64 0.59 0.65 0.82 0.42 0.20 0.20 0.14 0.10 0.07 0.05 0.02 0.00 0.00 0.00 0.00 0.00 0.00 0.00 0.00 0.00 0.00 0.00 0.00 0.00 0.00 0.00 0.00 0.00
0.00 0.01 0.01 0.16 0.29 0.62 0.47 1.10 1.64 1.29 0.79 0.14 0.06 0.11 0.17 0.29 0.21 0.26 0.46 0.40 0.26 0.17 0.15 0.13 0.11 0.06 0.01 0.00 0.00 0.00 0.00 0.00 0.00 0.00 0.00 0.00 0.00 0.00 0.00 0.00 0.00 0.00 0.00
0.01 0.02 0.01 0.12 0.24 0.82 0.61 0.67 1.32 1.44 1.09 0.48 0.13 0.16 0.28 0.23 0.20 0.28 0.31 0.43 0.39 0.23 0.19 0.14 0.13 0.11 0.05 0.01 0.00 0.00 0.00 0.00 0.00 0.00 0.00 0.00 0.02 0.02 0.00 0.00 0.00 0.00 0.00
0.03 0.03 0.00 0.06 0.23 0.52 0.69 0.58 1.11 1.69 1.23 0.99 0.51 0.13 0.21 0.23 0.13 0.14 0.22 0.17 0.31 0.34 0.24 0.19 0.14 0.12 0.10 0.04 0.01 0.00 0.02 0.07 0.07 0.01 0.00 0.00 0.01 0.02 0.01 0.00 0.00 0.00 0.00
0.01 0.00 0.00 0.04 0.23 0.47 0.96 0.82 1.29 1.53 2.02 1.42 1.00 0.34 0.10 0.15 0.10 0.07 0.08 0.15 0.11 0.20 0.26 0.33 0.27 0.15 0.11 0.10 0.06 0.04 0.02 0.02 0.00 0.00 0.01 0.00 0.00 0.01 0.00 0.00 0.00 0.00 0.00
0.03 0.00 0.00 0.04 0.20 0.44 0.93 1.23 1.45 1.30 2.30 2.03 1.80 0.84 0.34 0.23 0.34 0.14 0.08 0.11 0.16 0.14 0.18 0.26 0.32 0.29 0.24 0.20 0.19 0.20 0.09 0.02 0.00 0.00 0.02 0.02 0.02 0.01 0.00 0.00 0.00 0.00 0.00
0.06 0.01 0.00 0.03 0.13 0.38 0.69 0.93 2.18 1.69 2.01 2.17 2.53 1.54 1.15 0.65 0.43 0.36 0.20 0.10 0.14 0.16 0.17 0.19 0.20 0.19 0.17 0.22 0.26 0.22 0.13 0.05 0.02 0.02 0.02 0.04 0.04 0.02 0.00 0.00 0.00 0.00 0.00
0.06 0.06 0.03 0.06 0.12 0.25 0.55 0.58 0.96 1.61 1.72 1.83 2.86 2.46 2.38 1.63 0.78 0.61 0.39 0.29 0.12 0.06 0.09 0.13 0.16 0.24 0.18 0.22 0.13 0.08 0.07 0.05 0.04 0.03 0.02 0.05 0.04 0.02 0.01 0.00 0.00 0.00 0.00
0.03 0.06 0.07 0.11 0.15 0.28 0.34 0.43 0.61 0.74 1.40 1.14 1.84 2.22 2.20 2.07 1.54 1.15 0.62 0.39 0.32 0.18 0.11 0.21 0.36 0.27 0.26 0.21 0.15 0.10 0.07 0.05 0.06 0.05 0.06 0.05 0.03 0.01 0.01 0.00 0.00 0.02 0.01
0.02 0.03 0.04 0.19 0.21 0.34 0.42 0.51 0.63 0.77 0.87 0.95 1.10 1.41 1.65 1.87 1.76 1.50 1.11 0.64 0.56 0.50 0.43 0.35 0.42 0.50 0.43 0.42 0.23 0.12 0.10 0.06 0.05 0.07 0.09 0.09 0.06 0.04 0.05 0.06 0.04 0.04 0.06
0.09 0.11 0.28 0.40 0.41 0.78 0.61 0.56 0.69 0.80 0.91 0.81 0.86 0.96 1.26 1.34 1.17 1.44 1.27 0.88 0.66 0.58 0.62 0.58 0.47 0.43 0.43 0.35 0.40 0.18 0.11 0.10 0.09 0.07 0.06 0.06 0.09 0.08 0.08 0.07 0.07 0.07 0.10
0.32 0.55 0.78 0.88 1.32 1.25 0.86 0.74 0.78 0.53 1.13 0.94 0.78 0.67 0.76 0.89 0.74 0.82 1.02 1.39 0.70 0.58 0.62 0.57 0.63 0.55 0.47 0.41 0.37 0.29 0.17 0.12 0.09 0.09 0.08 0.08 0.08 0.07 0.08 0.10 0.11 0.13 0.16
0.82 0.99 1.40 1.76 1.39 1.15 0.79 0.92 0.97 0.82 1.35 1.41 1.11 0.63 0.48 0.70 0.59 0.63 0.71 1.16 1.29 0.73 0.62 0.64 0.60 0.51 0.54 0.52 0.46 0.41 0.42 0.36 0.29 0.22 0.18 0.18 0.20 0.17 0.20 0.25 0.27 0.30 0.29
1.40 1.44 1.50 1.33 1.08 1.05 1.33 1.45 1.66 1.74 1.75 1.79 1.67 1.09 0.74 0.84 0.80 0.67 0.87 0.89 1.18 1.13 0.81 0.76 0.81 0.88 0.74 0.67 0.65 0.56 0.46 0.41 0.35 0.29 0.29 0.31 0.29 0.27 0.29 0.32 0.28 0.30 0.23
2.50 2.68 2.72 2.54 2.21 2.08 2.11 2.16 2.04 1.81 1.37 1.24 1.50 1.35 1.07 1.12 1.44 1.35 1.17 0.91 1.17 1.19 1.06 0.96 1.02 1.00 1.12 1.10 1.04 0.91 0.76 0.67 0.54 0.46 0.39 0.32 0.31 0.30 0.30 0.31 0.24 0.20 0.18
2.51 2.18 1.93 1.71 1.60 1.61 1.65 1.45 1.45 1.32 1.15 1.23 1.23 1.12 1.42 1.40 1.62 1.74 1.46 0.82 1.05 1.03 1.33 1.06 0.94 0.95 0.88 1.08 1.21 1.15 0.98 0.97 0.99 0.86 0.67 0.54 0.52 0.47 0.50 0.52 0.44 0.36 0.31
1.03 0.94 0.98 0.93 0.92 0.98 0.95 1.01 1.12 0.94 0.86 0.83 0.82 1.04 1.29 1.26 1.40 1.32 1.36 1.34 1.37 1.11 1.29 1.28 1.03 1.12 1.11 1.08 1.09 1.30 1.26 1.07 0.95 0.88 0.82 0.81 0.78 0.76 0.72 0.69 0.68 0.70 0.76
0.35 0.40 0.41 0.36 0.37 0.26 0.17 0.15 0.14 0.24 0.31 0.45 0.69 0.89 0.86 0.90 1.02 0.85 1.04 0.88 0.78 0.79 0.66 0.75 0.90 0.91 0.99 0.97 0.87 0.99 1.08 1.24 1.27 1.26 1.22 1.10 1.00 0.99 1.02 0.95 0.91 0.87 0.87
0.00 0.00 0.00 0.00 0.00 0.00 0.00 0.01 0.01 0.01 0.02 0.05 0.10 0.17 0.25 0.23 0.25 0.30 0.29 0.28 0.19 0.15 0.12 0.17 0.24 0.32 0.32 0.46 0.43 0.46 0.45 0.54 0.63 0.74 0.81 0.89 0.94 0.99 0.94 0.83 0.84 0.83 0.81
0.00 0.00 0.00 0.00 0.00 0.00 0.00 0.00 0.00 0.00 0.00 0.00 0.00 0.00 0.01 0.01 0.03 0.04 0.04 0.03 0.01 0.02 0.01 0.01 0.03 0.12 0.24 0.32 0.32 0.32 0.30 0.33 0.38 0.40 0.37 0.42 0.42 0.49 0.51 0.49 0.52 0.55 0.54
0.00 0.00 0.00 0.00 0.00 0.00 0.00 0.00 0.00 0.00 0.00 0.00 0.00 0.00 0.00 0.00 0.01 0.02 0.01 0.01 0.00 0.00 0.00 0.00 0.01 0.01 0.03 0.09 0.15 0.16 0.18 0.19 0.21 0.26 0.34 0.42 0.49 0.47 0.48 0.47 0.43 0.45 0.49
0.00 0.00 0.00 0.00 0.00 0.00 0.00 0.00 0.00 0.00 0.00 0.00 0.00 0.00 0.00 0.00 0.00 0.00 0.00 0.00 0.00 0.00 0.01 0.02 0.03 0.02 0.02 0.03 0.03 0.03 0.04 0.04 0.05 0.08 0.10 0.14 0.18 0.20 0.26 0.28 0.31 0.31 0.28
0.00 0.00 0.00 0.00 0.00 0.00 0.00 0.00 0.00 0.00 0.00 0.00 0.00 0.00 0.00 0.00 0.00 0.00 0.00 0.00 0.00 0.00 0.00 0.00 0.00 0.00 0.00 0.00 0.02 0.04 0.06 0.08 0.09 0.11 0.13 0.13 0.13 0.15 0.18 0.22 0.27 0.29 0.25
0.00 0.00 0.00 0.00 0.00 0.00 0.00 0.00 0.00 0.00 0.00 0.00 0.00 0.00 0.00 0.00 0.00 0.00 0.00 0.00 0.00 0.00 0.00 0.00 0.00 0.00 0.00 0.00 0.00 0.00 0.00 0.01 0.01 0.02 0.05 0.07 0.08 0.09 0.10 0.14 0.15 0.16 0.16
0.00 0.00 0.00 0.00 0.00 0.00 0.00 0.00 0.00 0.00 0.01 0.03 0.05 0.07 0.06 0.06 0.04 0.02 0.03 0.02 0.01 0.02 0.01 0.00 0.01 0.01 0.02 0.03 0.03 0.02 0.01 0.01 0.02 0.03 0.01 0.01 0.02 0.03 0.05 0.09 0.15 0.20 0.22
0.00 0.00 0.00 0.00 0.00 0.00 0.00 0.00 0.00 0.00 0.00 0.00 0.00 0.01 0.03 0.07 0.13 0.19 0.26 0.31 0.32 0.33 0.28 0.24 0.20 0.18 0.23 0.22 0.25 0.25 0.23 0.23 0.26 0.25 0.13 0.11 0.10 0.10 0.13 0.18 0.24 0.30 0.33